Location: Barrett Brook
(44.3123°N, 71.7154°W)
Time: 03:59:24
(UTC+00:00)

Envisat - Pass Details

Date: 20 October 2024
Orbit: 762 x 763 km, 98.3° (Epoch: 04 November)

Event Time Altitude Azimuth Distance (km) Brightness Sun altitude
Rises 07:03:21 0° 24° (NNE) 3,235 6.9 -43.1°
Reaches altitude 10° 07:06:00 10° 36° (NE) 2,304 6.0 -42.7°
Enters shadow 07:06:40 13° 41° (NE) 2,087 5.8 -42.6°
